Zurück zum Katalog

STARLINK-3197

AktivKommunikationVLEO
NORAD 49757·PAYLOAD·🇺🇸 United States

Gestartet Dec 2, 2021 von Cape Canaveral Space Force Station

Loading…

Nächste Überflüge (nächste 24 Stunden)

TLE

AktuellSource: CelesTrak SupGP

Epoche: Sep 14, 2026, 12:30 UTC

1 49757C 21115AK  26257.52131944 -.00022361  00000+0 -67857-3 0  2571
2 49757  53.1596 357.8528 0001161  85.6184  32.8528 15.33557663    15

Verfolge STARLINK-3197 in Echtzeit mit AllMySat

Download on the App Store